sat.trackr.live / text

‹ back to catalog

SKYNET 5C

NORAD 33055 · 2008-030A

PAYLOAD ACTIVE UNKNOWN

§ Identity

Operator
Country
UK
Launch date
2008-06-12
Launch site
FRGUI
Launch vehicle
Mass (kg)
RCS (m²)
29.10

Purposes: comms

External: N2YO · Heavens-Above · Gunter

§ Orbital elements

Epoch: 2026-09-12T22:22:27.208704Z

Period
1,436.10 min
Inclination
4.0079°
Eccentricity
0.0004800
Mean motion
1.00271684 rev/d
Perigee alt
35,766.4 km
Apogee alt
35,806.9 km
Semi-major
42,164.8 km
B*
0.0000e+0
RAAN
75.9383°
Arg perigee
106.8297°
Mean anomaly
126.9996°
Rev number
6,683

§ Raw data

SKYNET 5C1 33055U 08030A   26255.93225936 -.00000151  00000+0  00000+0 0  99922 33055   4.0079  75.9383 0004800 106.8297 126.9996  1.00271684 66832

JSON: /api/v1/satellites/33055 · /tle

For live sub-satellite position, see the globe view (requires WebGL).

§ Visibility from observer

Set your observer location to see the next 7 days of passes ≥ 10°. The values pass through the URL so the page stays shareable.

No JS? Fill the form by hand. The geolocation button needs JavaScript.